P/2019 S3 ( PanSTARRS )

Japanese version
Home page
Updated on October 5, 2019

---------------------------------------------------------------------

* Profile

Discovery Date September 25, 2019
Magnitude 20.7 mag
Discoverer Pan-STARRS 1 telescope (Haleakala)

* Orbital Elements

Epoch 2019 Aug. 25.0 TT = JDT 2458720.5                                         
T 2019 Aug. 26.07844 TT                                 Veres                   
q   1.8066638            (2000.0)            P               Q                  
n   0.15633610     Peri.  212.94296     +0.99542062     -0.05904281             
a   3.4126876      Node   150.16676     +0.07749008     +0.95890667             
e   0.4706038      Incl.    8.69175     -0.05597388     +0.27751026             
P   6.30                                                                        
From 45 observations 2019 Aug. 27-Oct. 4, mean residual 0".6.                   

* Magnitudes Graph

        m1 = 17.5 + 5 log d + 10.0 log r

---------------------------------------------------------------------

The orbital elements are published on M.P.E.C. 2019-T82.
The magnitudes graphs are made with Comet for Windows.

---------------------------------------------------------------------

Copyright(C) Seiichi Yoshida (comet@aerith.net). All rights reserved.